{"data":{"norad_id":58925,"epoch":"2026-09-06T07:33:20.143008Z","epoch_age_seconds":1477988,"freshness":"OLD","line1":"1 58925U 24024J   26249.31481647  .09942597  24887-5  34848-3 0  9997","line2":"2 58925  97.2775 346.8455 0013598 271.1309  88.8434 16.43124037182605","mean_motion":16.43124037,"eccentricity":0.0013598,"inclination_deg":97.2775,"raan_deg":346.8455,"arg_perigee_deg":271.1309,"mean_anomaly_deg":88.8434,"bstar":0.00034848,"rev_number":18260,"period_min":87.637936490123,"perigee_km":148.61813997482,"apogee_km":166.39247279126,"semimajor_km":6535.642306383,"source":"CELESTRAK","updated_at":"2026-09-06T09:00:20.090170Z"}}